User: anonymous
Location: Unspecified
(0.0000°N, 0.0000°E)
Time: 21:43:07
(UTC+00:00)
Language:

USA 186 - Orbit

View from above orbital plane
View from above orbital plane
View from above satellite
View from above satellite

Ground track
Ground track

The orbit data is extracted from the following two-line orbital elements,

1 28888U 05042A   14259.78639090 0.00055000  00000-0  24199-3 0    09
2 28888  96.8631 297.3085 0129533 327.5939  32.4059 15.72769525    06
Epoch (UTC): 16 September 2014 18:52:24
Eccentricity: 0.0129533
inclination: 96.8631°
perigee height: 264 km
apogee height: 438 km
right ascension of ascending node: 297.3085°
argument of perigee: 327.5939°
revolutions per day: 15.72769525
mean anomaly at epoch: 32.4059°
orbit number at epoch: 0

The dashed part of the orbit path shows where the satellite is in the earth's shadow,  

DLR